[[{"header":{"parameterUnit":"m.s-1","parameterCategory":1,"la1":30.2991,"la2":30.254,"lo1":-89.0895,"lo2":-89.0444,"dy":0.0017,"dx":0.0017,"nx":28,"ny":28,"refTime":"2025-03-01T09:00:00:Z","depth":0,"parameterNumber":2,"parameterNumberName":"U-component_of_WINDS"},"data":[0,0,0,0,0,0,0,0,0,0,0,0,0,0,0,0,0,0,0,0,0,0,0,0,0,0,0,0,0,0,0,0,0,0,0,0,0,0,0,0,0,0,0,0,0,0,0,0,0,0,0,0,0,0,0,0,0,0,-1.8144,-1.8144,0,-1.8113,-1.8113,-1.8112,-1.8049,-1.8048,-1.8047,-1.8045,-1.8015,-1.8016,-1.8016,0,0,0,0,0,0,0,0,0,0,0,0,0,-1.8151,-1.8151,-1.8144,-1.8144,-1.8144,-1.8113,-1.8113,-1.8112,-1.8049,-1.8048,-1.8046,-1.8045,-1.8015,-1.8016,-1.8016,0,0,0,0,0,0,0,0,0,0,0,0,0,-1.8137,-1.8152,-1.8144,-1.8108,-1.8105,-1.8113,-1.8113,-1.8112,-1.805,-1.8048,-1.8046,-1.8044,-1.8015,-1.8016,-1.8016,-1.8058,0,0,-1.8018,-1.8018,0,0,0,0,0,0,0,0,-1.8138,-1.8137,-1.8114,-1.8111,-1.8107,-1.8083,-1.8104,-1.8094,-1.805,-1.8071,-1.8045,-1.8043,-1.8039,-1.8038,-1.8036,-1.8056,-1.8055,-1.8018,-1.8018,-1.8019,-1.8019,0,0,0,0,0,0,0,-1.8139,-1.8138,-1.8132,-1.8114,-1.8109,-1.8094,-1.809,-1.8102,-1.8066,-1.8069,-1.8064,-1.8061,-1.8037,-1.8036,-1.8035,-1.8055,-1.8018,-1.8018,-1.8019,-1.8019,-1.8109,-1.8111,0,0,0,0,0,0,-1.8145,-1.8139,-1.8133,-1.8131,-1.8118,-1.8096,-1.8091,-1.8093,-1.8066,-1.806,-1.8063,-1.8058,-1.8036,-1.8035,-1.8034,-1.8083,-1.8019,-1.8019,-1.8019,-1.8107,-1.811,-1.8112,0,0,0,0,0,0,-1.8145,-1.8145,-1.8134,-1.8134,-1.8131,-1.8098,-1.81,-1.8093,-1.8092,-1.8061,-1.8055,-1.8068,-1.8034,-1.8033,-1.8053,-1.8081,-1.8019,-1.802,-1.8105,-1.8108,-1.8111,-1.818,0,0,0,0,0,0,-1.8146,-1.8146,-1.8161,-1.8135,-1.8132,-1.8153,-1.8101,-1.8094,-1.8093,-1.8087,-1.8065,-1.8059,-1.8033,-1.8052,-1.8053,-1.808,-1.802,-1.8102,-1.8106,-1.811,-1.8175,-1.8185,-1.8194,0,0,0,0,0,-1.8146,-1.8181,-1.8162,-1.8161,-1.815,-1.8155,-1.8153,-1.8122,-1.8095,-1.8111,-1.8091,-1.806,-1.8077,-1.8055,-1.8055,-1.8083,-1.81,-1.8105,-1.811,-1.8171,-1.8183,-1.8193,0,0,0,0,0,0,-1.8212,-1.8177,-1.8155,-1.8182,-1.8172,-1.8144,-1.8163,-1.8135,-1.8133,-1.8127,-1.8088,-1.8084,-1.811,-1.8098,-1.8073,-1.8123,-1.8084,-1.8089,-1.813,-1.8141,-1.8151,-1.8154,-1.8021,0,0,0,0,0,-1.8229,-1.8236,-1.8205,-1.8232,-1.8228,-1.8197,-1.8198,-1.8174,-1.8162,-1.8158,-1.814,-1.813,-1.8133,-1.8136,-1.8137,-1.8172,-1.8168,-1.8192,-1.8201,-1.8209,-1.8214,-1.8234,-1.8245,-1.8127,-1.8127,-1.8127,0,0,-1.8266,-1.8248,-1.8254,-1.8245,-1.8234,-1.8243,-1.8193,-1.8204,-1.8211,-1.8159,-1.8178,-1.8164,-1.815,-1.8179,-1.819,-1.817,-1.8246,-1.8215,-1.8221,-1.8222,-1.824,-1.8252,-1.8262,-1.813,-1.813,-1.8129,0,0,-1.8337,-1.8323,-1.8345,-1.8336,-1.832,-1.8299,-1.8304,-1.828,-1.8269,-1.8286,-1.8249,-1.8256,-1.8262,-1.8254,-1.8251,-1.8321,-1.8293,-1.8322,-1.8371,-1.8391,-1.8401,-1.8409,-1.8436,-1.8446,-1.8327,-1.8327,-1.8327,0,-1.8385,-1.8396,-1.836,-1.8374,-1.8372,-1.8325,-1.8348,-1.8341,-1.8327,-1.8327,-1.8304,-1.8311,-1.8298,-1.8325,-1.8343,-1.8341,-1.8347,-1.8326,-1.8402,-1.841,-1.8417,-1.8443,-1.8453,-1.8331,-1.8331,-1.833,-1.833,0,-1.8457,-1.8466,-1.8485,-1.8473,-1.8473,-1.8491,-1.8459,-1.8463,-1.844,-1.8421,-1.844,-1.8423,-1.8421,-1.8425,-1.8402,-1.845,-1.8438,-1.8409,-1.8369,-1.8433,-1.8456,-1.8466,-1.8337,-1.8335,-1.8334,-1.8333,0,0,-1.8571,-1.8538,-1.8546,-1.8541,-1.852,-1.8526,-1.8543,-1.854,-1.8546,-1.8537,-1.8552,-1.8558,-1.8532,-1.8528,-1.8504,-1.8521,-1.858,-1.849,-1.8489,-1.851,-1.8634,-1.8658,-1.867,-1.8561,-1.8562,-1.8563,-1.8636,0,-1.864,-1.8666,-1.8635,-1.8668,-1.8677,-1.8632,-1.8647,-1.8637,-1.862,-1.8625,-1.8606,-1.8613,-1.8576,-1.8574,-1.8588,-1.857,-1.8605,-1.8564,-1.8576,-1.8577,-1.8584,-1.8682,-1.8707,-1.8776,-1.8645,-1.8647,-1.8648,0,-1.8724,-1.872,-1.8755,-1.8733,-1.8736,-1.8749,-1.8746,-1.875,-1.8738,-1.8725,-1.8721,-1.8692,-1.8708,-1.8668,-1.8691,-1.8663,-1.8666,-1.8658,-1.866,-1.8662,-1.8618,-1.8689,-1.8798,-1.8809,-1.8661,-1.866,-1.8659,0,-1.8807,-1.881,-1.8831,-1.8828,-1.8802,-1.8813,-1.8803,-1.8789,-1.879,-1.8786,-1.8787,-1.8785,-1.8785,-1.8785,-1.8757,-1.873,-1.8785,-1.8741,-1.8776,-1.8777,-1.8792,-1.8792,-1.8905,-1.8789,-1.8789,-1.8788,-1.8788,0,-1.8889,-1.8913,-1.8869,-1.8882,-1.8908,-1.8871,-1.8898,-1.8883,-1.8871,-1.8882,-1.8843,-1.8854,-1.8815,-1.8822,-1.88,-1.8824,-1.8823,-1.8814,-1.8809,-1.882,-1.8821,-1.8823,-1.8818,-1.8791,-1.8791,-1.879,-1.879,0,-1.8987,-1.8958,-1.8979,-1.8953,-1.8947,-1.8968,-1.8946,-1.8958,-1.8938,-1.8953,-1.8954,-1.8924,-1.893,-1.8901,-1.8903,-1.8888,-1.8925,-1.891,-1.893,-1.8926,-1.8963,-1.8962,-1.9084,-1.9099,-1.8971,-1.8972,-1.8973,0,-1.9043,-1.906,-1.9036,-1.904,-1.9032,-1.904,-1.9041,-1.9005,-1.9008,-1.8995,-1.901,-1.9013,-1.9014,-1.9028,-1.9007,-1.9008,-1.8995,-1.9037,-1.8995,-1.9006,-1.8999,-1.8999,-1.9002,-1.9047,-1.9049,-1.905,-1.9051,0,-1.9146,-1.913,-1.9133,-1.9131,-1.9133,-1.913,-1.9124,-1.913,-1.9092,-1.9097,-1.9104,-1.9105,-1.9107,-1.9112,-1.9109,-1.9099,-1.907,-1.9064,-1.9073,-1.9086,-1.9098,-1.9095,-1.8957,-1.9062,-1.9061,-1.906,-1.906,-1.9059,-1.9226,-1.924,-1.9226,-1.923,-1.9222,-1.9218,-1.9229,-1.921,-1.9215,-1.9214,-1.9192,-1.9203,-1.9191,-1.9185,-1.9178,-1.9188,-1.9168,-1.9179,-1.9183,-1.9187,-1.9195,-1.9094,-1.9186,-1.9186,-1.9186,-1.9185,-1.9185,0,-1.9329,-1.9318,-1.9322,-1.9316,-1.932,-1.929,-1.9282,-1.9288,-1.9298,-1.9289,-1.9291,-1.93,-1.9304,-1.9283,-1.9285,-1.9297,-1.9283,-1.9299,-1.9299,-1.9298,-1.9211,-1.9205,-1.931,-1.931,-1.931,-1.931,-1.931,-1.931,-1.9384,-1.9407,-1.939,-1.941,-1.9398,-1.9408,-1.9407,-1.9403,-1.9396,-1.9407,-1.9411,-1.9396,-1.9383,-1.9384,-1.9388,-1.9381,-1.9385,-1.9406,-1.9396,-1.9316,-1.9304,-1.9292,-1.9286,-1.9406,-1.9406,-1.9482,-1.9482,-1.9483]},{"header":{"parameterUnit":"m.s-1","parameterCategory":1,"la1":30.2991,"la2":30.254,"lo1":-89.0895,"lo2":-89.0444,"dy":0.0017,"dx":0.0017,"nx":28,"ny":28,"refTime":"2025-03-01T09:00:00:Z","depth":0,"parameterNumber":3,"parameterNumberName":"V-component_of_WINDS"},"data":[0,0,0,0,0,0,0,0,0,0,0,0,0,0,0,0,0,0,0,0,0,0,0,0,0,0,0,0,0,0,0,0,0,0,0,0,0,0,0,0,0,0,0,0,0,0,0,0,0,0,0,0,0,0,0,0,0,0,0.7742,0.7741,0,0.7578,0.7576,0.7574,0.7475,0.7475,0.7474,0.7474,0.7298,0.7294,0.729,0,0,0,0,0,0,0,0,0,0,0,0,0,0.7966,0.7962,0.7743,0.7741,0.7738,0.7578,0.7576,0.7573,0.7475,0.7475,0.7474,0.7474,0.73,0.7295,0.729,0,0,0,0,0,0,0,0,0,0,0,0,0,0.7842,0.7961,0.7743,0.767,0.7662,0.7578,0.7576,0.7573,0.7476,0.7475,0.7474,0.7474,0.7302,0.7295,0.7289,0.7262,0,0,0.7269,0.7267,0,0,0,0,0,0,0,0,0.7849,0.7834,0.7683,0.7675,0.7666,0.7547,0.759,0.7469,0.7476,0.7546,0.7474,0.7473,0.7381,0.7368,0.7338,0.7254,0.7247,0.7269,0.7265,0.7262,0.726,0,0,0,0,0,0,0,0.7858,0.784,0.7677,0.7681,0.7671,0.7644,0.7626,0.7566,0.7469,0.754,0.7533,0.7515,0.7376,0.7345,0.7334,0.7244,0.7269,0.7263,0.7259,0.7257,0.7128,0.7128,0,0,0,0,0,0,0.7879,0.7848,0.7682,0.7672,0.7758,0.7641,0.762,0.7585,0.747,0.7451,0.7515,0.7511,0.7356,0.7341,0.7327,0.7286,0.7262,0.7256,0.7253,0.7127,0.7128,0.7128,0,0,0,0,0,0,0.7884,0.7865,0.7689,0.7758,0.7734,0.7637,0.7599,0.7583,0.7551,0.7451,0.7432,0.7502,0.7355,0.7336,0.7279,0.7279,0.7253,0.7248,0.7127,0.7128,0.7128,0.7207,0,0,0,0,0,0,0.7891,0.7867,0.7858,0.7759,0.773,0.7646,0.7599,0.758,0.7541,0.7533,0.7433,0.7416,0.7353,0.7289,0.7273,0.727,0.7243,0.7126,0.7127,0.7128,0.7204,0.721,0.7216,0,0,0,0,0,0.7899,0.7885,0.7858,0.7838,0.7717,0.7646,0.763,0.756,0.7542,0.753,0.7466,0.7419,0.7283,0.7285,0.7265,0.726,0.7126,0.7127,0.7128,0.7201,0.7209,0.7215,0,0,0,0,0,0,0.7984,0.7871,0.7839,0.7793,0.7731,0.763,0.7613,0.7571,0.751,0.7505,0.7419,0.7397,0.7348,0.7298,0.7303,0.7227,0.7199,0.7196,0.7261,0.7268,0.7274,0.7285,0.7237,0,0,0,0,0,0.7999,0.7953,0.7855,0.7824,0.7795,0.771,0.7677,0.7629,0.7559,0.7531,0.7463,0.7395,0.7337,0.73,0.7241,0.7197,0.7172,0.7184,0.719,0.7195,0.7193,0.7164,0.7167,0.7132,0.7132,0.7132,0,0,0.8025,0.7958,0.7934,0.784,0.7785,0.7738,0.7688,0.764,0.7603,0.7523,0.7465,0.7413,0.7332,0.7282,0.7256,0.7238,0.7198,0.7197,0.7202,0.7196,0.7165,0.7169,0.7172,0.7132,0.7132,0.7132,0,0,0.8051,0.7996,0.7964,0.7911,0.783,0.7774,0.7767,0.7673,0.7635,0.7577,0.7515,0.747,0.7372,0.7316,0.7275,0.728,0.7234,0.7263,0.7293,0.7266,0.7269,0.7271,0.727,0.7271,0.7262,0.7262,0.7262,0,0.8094,0.8022,0.7952,0.7907,0.7867,0.7795,0.776,0.7711,0.7615,0.7587,0.7571,0.7446,0.7386,0.7321,0.7322,0.7292,0.7279,0.7273,0.7275,0.7276,0.7276,0.7275,0.7275,0.7266,0.7265,0.7265,0.7265,0,0.8078,0.803,0.8013,0.7924,0.7881,0.7842,0.7763,0.7729,0.7685,0.763,0.757,0.7497,0.7421,0.7402,0.7358,0.733,0.7322,0.7292,0.726,0.7285,0.7282,0.7281,0.7271,0.727,0.7269,0.7268,0,0,0.815,0.8024,0.8018,0.7977,0.7883,0.7843,0.78,0.7728,0.7699,0.7635,0.7595,0.7515,0.7485,0.7439,0.7388,0.7365,0.7371,0.7336,0.7333,0.7343,0.7334,0.7356,0.7356,0.7342,0.7341,0.7341,0.734,0,0.8159,0.808,0.8016,0.796,0.7913,0.7845,0.7807,0.7744,0.7692,0.7643,0.7584,0.7528,0.7495,0.7466,0.7441,0.7376,0.7368,0.7376,0.73,0.7299,0.732,0.7355,0.7378,0.738,0.7338,0.7338,0.7338,0,0.8159,0.81,0.804,0.7951,0.7929,0.7896,0.7825,0.778,0.7707,0.767,0.762,0.7567,0.7516,0.7493,0.742,0.7427,0.7392,0.7356,0.7355,0.7342,0.7318,0.7341,0.7379,0.7379,0.7336,0.7336,0.7336,0,0.8214,0.812,0.8071,0.8038,0.7934,0.7912,0.7867,0.7794,0.7755,0.7692,0.7665,0.7597,0.7559,0.7507,0.7436,0.7426,0.737,0.7341,0.7335,0.7337,0.7324,0.7325,0.7355,0.7307,0.7307,0.7307,0.7307,0,0.823,0.8195,0.8095,0.8065,0.8024,0.795,0.791,0.7859,0.7795,0.7752,0.7689,0.7649,0.756,0.7509,0.7454,0.7401,0.7385,0.7352,0.7337,0.7356,0.736,0.733,0.7327,0.7307,0.7307,0.7307,0.7307,0,0.8283,0.8215,0.8157,0.8065,0.804,0.8014,0.7932,0.79,0.7845,0.7792,0.7775,0.7688,0.7625,0.7551,0.7463,0.7426,0.7376,0.7356,0.7402,0.7393,0.739,0.7391,0.7399,0.7396,0.7354,0.7354,0.7355,0,0.8296,0.8268,0.8173,0.8141,0.8098,0.8048,0.8008,0.7934,0.7895,0.781,0.7787,0.772,0.7662,0.7565,0.7492,0.7424,0.74,0.7408,0.7389,0.7409,0.7397,0.7399,0.7394,0.7412,0.7413,0.7413,0.7414,0,0.8326,0.8294,0.824,0.8175,0.813,0.8075,0.8016,0.7993,0.7907,0.7866,0.7802,0.7758,0.767,0.7603,0.7526,0.7477,0.743,0.7421,0.7416,0.7433,0.746,0.7443,0.7412,0.742,0.742,0.7419,0.7419,0.7419,0.8357,0.8329,0.8257,0.82,0.8149,0.8096,0.806,0.8003,0.7949,0.7873,0.7832,0.7769,0.7695,0.7588,0.7541,0.7489,0.7472,0.7465,0.7463,0.7462,0.7466,0.7472,0.7475,0.7474,0.7474,0.7474,0.7474,0,0.8381,0.8332,0.8281,0.8202,0.8156,0.812,0.8054,0.8017,0.7963,0.79,0.7845,0.7771,0.7707,0.763,0.756,0.7533,0.7509,0.7516,0.7516,0.7505,0.7486,0.7497,0.7536,0.7536,0.7536,0.7536,0.7536,0.7536,0.8388,0.8338,0.8298,0.8221,0.8172,0.8111,0.8076,0.8026,0.7975,0.7897,0.7844,0.7795,0.7726,0.7651,0.7589,0.7568,0.7543,0.7557,0.7529,0.7512,0.7507,0.7501,0.7511,0.7553,0.7553,0.7552,0.7552,0.7552]}]]